Location: Cambroso
(45.2833°N, 12.0850°E)
Time: 16:48:30
(UTC+00:00)

Cosmos 1937 Rocket - Pass Details

Date: 21 January 2021
Orbit: 746 x 780 km, 74.1° (Epoch: 25 February)

Event Time Altitude Azimuth Distance (km) Brightness Sun altitude
Rises 18:13:24 0° 186° (S) 3,237 6.9 -22.6°
Reaches altitude 10° 18:15:48 10° 182° (S) 2,318 6.1 -23.0°
Enters shadow 18:20:18 52° 133° (SE) 966 3.7 -23.8°
